Regional Weather Roundup
Issued by NWS Northern Indiana

Current Version | Previous Version | Text Only | Print | Product List | Glossary On
Versions: 1 2 3 4 5 6 7 8 9 10 11 12 13 14 15 16 17 18 19 20 21 22 23 24 25 26 27 28 29 30 31 32 33 34 35 36 37 38 39 40 41 42 43 44 45 46 47 48 49 50
000
ASUS43 KIWX 251900
RWRIWX

KIWX WEATHER ROUNDUP
NATIONAL WEATHER SERVICE NORTHERN INDIANA
300 PM EDT FRI JUL 25 2014

NOTE: "FAIR" INDICATES FEW OR NO CLOUDS BELOW 12,000 FEET WITH NO
SIGNIFICANT WEATHER AND/OR OBSTRUCTIONS TO VISIBILITY.

* THESE STATIONS ARE NOT UNDER NWS QUALITY CONTROL. THEY ALSO MAY NOT
  REPORT WEATHER SUCH AS PRECIPITATION OR FOG.

INZ001>027-252000-
NORTHERN INDIANA

CITY           SKY/WX    TMP DP  RH WIND       PRES   REMARKS
GARY*          PTSUNNY   75  59  57 S14       29.96F
VALPARAISO     CLOUDY    74  58  57 S15       29.99F
KNOX*          CLOUDY    72  55  55 SW13      30.00F
SOUTH BEND     PTSUNNY   74  56  53 S13       30.00F
ELKHART*       MOSUNNY   73  54  49 S12       30.01F
GOSHEN         MOSUNNY   75  56  51 SW14G23   30.00F
MONTICELLO*    CLOUDY    72  60  64 SW9       30.02S
WARSAW*        PTSUNNY   72  55  56 SW12      30.02F
ANGOLA*        MOSUNNY   77  54  44 W10       30.01F
FORT WAYNE     PTSUNNY   75  54  47 S10G20    30.03F
PERU/GRISSOM   CLOUDY    74  58  57 SW13      30.04F

$$
INZ028>050-252000-
CENTRAL INDIANA

CITY           SKY/WX    TMP DP  RH WIND       PRES   REMARKS
LAFAYETTE      CLOUDY    70  56  61 SW9       30.02F
KOKOMO*        CLOUDY    73  55  53 SW12      30.04S
MUNCIE*        PTSUNNY   75  53  46 W8        30.05F
INDIANAPOLIS   LGT RAIN  71  54  54 SW7       30.06S

$$
MIZ043>046-050>051-056>058-064>065-071>073-077>080-252000-
SOUTHWEST LOWER MICHIGAN

CITY           SKY/WX    TMP DP  RH WIND       PRES   REMARKS
BATTLE CREEK   MOSUNNY   76  52  43 S10       30.00F
BENTON HARBOR  CLOUDY    73  54  51 SW8       29.99S
COLDWATER*     MOSUNNY   76  55  48 SW8       30.01F
HILLSDALE*     SUNNY     76  52  42 SW6       30.02F
HOLLAND        CLOUDY    74  56  53 SW7       29.99F
GRAND RAPIDS   PTSUNNY   74  54  49 SW9       29.98F
KALAMAZOO      MOSUNNY   76  53  44 S9        29.99F
STURGIS*       MOSUNNY   73  55  53 S9        30.00F
THREE RIVERS*  FAIR      75  56  50 SW7       30.00F

$$
OHZ001>008-015>018-024>025-252000-
NORTHWEST OHIO

CITY           SKY/WX    TMP DP  RH WIND       PRES   REMARKS
DEFIANCE       SUNNY     77  54  44 W10       30.03F
FINDLAY        SUNNY     77  53  43 S8        30.03F
TOLEDO EXPRESS MOSUNNY   77  53  43 S10       30.02F
TOLEDO METCALF PTSUNNY   75  51  43 SW12      30.03F
LIMA           MOSUNNY   75  52  44 SW6       30.05F

$$
&&


USA.gov is the U.S. government's official web portal to all federal, state and local government web resources and services.